Time,TemperatureF,DewpointF,PressureIn,WindDirection,WindDirectionDegrees,WindSpeedMPH,WindSpeedGustMPH,Humidity,HourlyPrecipIn,Conditions,Clouds,dailyrainin,SoftwareType,DateUTC
2013-08-21 00:00:00,52.7,44.7,30.02,West,281,0.0,0.0,74,0.00,,CLR,0.00,VWS V14.01,2013-08-21 07:00:00,
2013-08-21 00:05:00,52.6,44.6,30.02,West,281,0.0,0.0,74,0.00,,CLR,0.00,VWS V14.01,2013-08-21 07:05:00,
2013-08-21 00:10:00,52.3,44.6,30.02,West,281,0.0,0.0,75,0.00,,CLR,0.00,VWS V14.01,2013-08-21 07:10:00,
2013-08-21 00:15:00,52.1,44.4,30.02,West,281,0.0,0.0,75,0.00,,CLR,0.00,VWS V14.01,2013-08-21 07:15:00,
2013-08-21 00:20:00,52.3,44.6,30.02,West,281,0.0,0.0,75,0.00,,CLR,0.00,VWS V14.01,2013-08-21 07:20:00,
2013-08-21 00:25:00,52.4,44.4,30.02,West,281,0.0,0.0,74,0.00,,CLR,0.00,VWS V14.01,2013-08-21 07:25:00,
2013-08-21 00:30:00,52.4,44.4,30.02,West,281,0.0,0.0,74,0.00,,CLR,0.00,VWS V14.01,2013-08-21 07:30:00,
2013-08-21 00:35:00,52.4,44.4,30.02,West,281,0.0,0.0,74,0.00,,CLR,0.00,VWS V14.01,2013-08-21 07:35:00,
2013-08-21 00:40:00,52.6,44.6,30.02,West,281,0.0,0.0,74,0.00,,CLR,0.00,VWS V14.01,2013-08-21 07:40:00,
2013-08-21 00:45:00,52.9,44.8,30.02,West,281,0.0,0.0,74,0.00,,CLR,0.00,VWS V14.01,2013-08-21 07:45:00,
2013-08-21 00:50:00,53.2,44.4,30.03,West,281,0.0,0.0,72,0.00,,CLR,0.00,VWS V14.01,2013-08-21 07:50:00,
2013-08-21 00:55:00,53.3,44.5,30.03,West,281,0.0,0.0,72,0.00,,CLR,0.00,VWS V14.01,2013-08-21 07:55:00,
2013-08-21 01:00:00,53.3,44.5,30.03,West,281,0.0,0.0,72,0.00,,CLR,0.00,VWS V14.01,2013-08-21 08:00:00,
2013-08-21 01:05:00,52.7,44.3,30.03,West,281,0.0,0.0,73,0.00,,CLR,0.00,VWS V14.01,2013-08-21 08:05:00,
2013-08-21 01:10:00,52.7,44.3,30.03,West,281,0.0,0.0,73,0.00,,CLR,0.00,VWS V14.01,2013-08-21 08:10:00,
2013-08-21 01:15:00,52.6,44.2,30.03,West,281,0.0,0.0,73,0.00,,CLR,0.00,VWS V14.01,2013-08-21 08:15:00,
2013-08-21 01:21:00,52.4,44.0,30.03,West,281,0.0,0.0,73,0.00,,CLR,0.00,VWS V14.01,2013-08-21 08:21:00,
2013-08-21 01:26:00,52.4,44.0,30.03,West,281,0.0,0.0,73,0.00,,CLR,0.00,VWS V14.01,2013-08-21 08:26:00,
2013-08-21 01:31:00,52.1,43.4,30.03,West,281,0.0,0.0,72,0.00,,CLR,0.00,VWS V14.01,2013-08-21 08:31:00,
2013-08-21 01:36:00,52.1,43.4,30.03,West,281,0.0,0.0,72,0.00,,CLR,0.00,VWS V14.01,2013-08-21 08:36:00,
2013-08-21 01:41:00,52.3,43.5,30.03,West,281,0.0,0.0,72,0.00,,CLR,0.00,VWS V14.01,2013-08-21 08:41:00,
2013-08-21 01:46:00,52.4,43.3,30.03,West,281,0.0,0.0,71,0.00,,CLR,0.00,VWS V14.01,2013-08-21 08:46:00,
2013-08-21 01:51:00,52.6,43.5,30.03,West,281,0.0,0.0,71,0.00,,CLR,0.00,VWS V14.01,2013-08-21 08:51:00,
2013-08-21 01:56:00,52.7,43.6,30.03,West,281,0.0,0.0,71,0.00,,CLR,0.00,VWS V14.01,2013-08-21 08:56:00,
2013-08-21 02:01:00,52.4,43.3,30.03,West,281,0.0,0.0,71,0.00,,CLR,0.00,VWS V14.01,2013-08-21 09:01:00,
2013-08-21 02:06:00,52.1,43.4,30.03,West,281,0.0,0.0,72,0.00,,CLR,0.00,VWS V14.01,2013-08-21 09:06:00,
2013-08-21 02:11:00,51.8,43.1,30.03,West,281,0.0,0.0,72,0.00,,CLR,0.00,VWS V14.01,2013-08-21 09:11:00,
2013-08-21 02:16:00,51.5,42.8,30.03,West,281,0.0,0.0,72,0.00,,CLR,0.00,VWS V14.01,2013-08-21 09:16:00,
2013-08-21 02:21:00,51.7,43.0,30.03,West,281,0.0,0.0,72,0.00,,CLR,0.00,VWS V14.01,2013-08-21 09:21:00,
2013-08-21 02:26:00,51.7,43.0,30.03,West,281,0.0,0.0,72,0.00,,CLR,0.00,VWS V14.01,2013-08-21 09:26:00,
2013-08-21 02:31:00,51.5,42.8,30.03,West,281,0.0,0.0,72,0.00,,CLR,0.00,VWS V14.01,2013-08-21 09:31:00,
2013-08-21 02:36:00,51.2,43.2,30.03,West,281,0.0,0.0,74,0.00,,CLR,0.00,VWS V14.01,2013-08-21 09:36:00,
2013-08-21 02:41:00,51.1,43.5,30.03,West,281,0.0,0.0,75,0.00,,CLR,0.00,VWS V14.01,2013-08-21 09:41:00,
2013-08-21 02:46:00,50.9,43.3,30.03,West,281,0.0,0.0,75,0.00,,CLR,0.00,VWS V14.01,2013-08-21 09:46:00,
2013-08-21 02:51:00,50.9,43.3,30.04,West,281,0.0,0.0,75,0.00,,CLR,0.00,VWS V14.01,2013-08-21 09:51:00,
2013-08-21 02:57:00,50.8,43.2,30.04,West,281,0.0,0.0,75,0.00,,CLR,0.00,VWS V14.01,2013-08-21 09:57:00,
2013-08-21 03:02:00,50.6,43.0,30.04,West,281,0.0,0.0,75,0.00,,CLR,0.00,VWS V14.01,2013-08-21 10:02:00,
2013-08-21 03:07:00,50.2,42.6,30.04,West,281,0.0,0.0,75,0.00,,CLR,0.00,VWS V14.01,2013-08-21 10:07:00,
2013-08-21 03:12:00,49.8,42.2,30.04,West,281,0.0,0.0,75,0.00,,CLR,0.00,VWS V14.01,2013-08-21 10:12:00,
2013-08-21 03:17:00,49.6,42.0,30.04,West,281,0.0,0.0,75,0.00,,CLR,0.00,VWS V14.01,2013-08-21 10:17:00,
2013-08-21 03:22:00,49.0,41.4,30.04,West,281,0.0,0.0,75,0.00,,CLR,0.00,VWS V14.01,2013-08-21 10:22:00,
2013-08-21 03:27:00,48.9,41.3,30.04,West,281,0.0,0.0,75,0.00,,CLR,0.00,VWS V14.01,2013-08-21 10:27:00,
2013-08-21 03:32:00,48.7,42.5,30.04,West,281,0.0,0.0,79,0.00,,CLR,0.00,VWS V14.01,2013-08-21 10:32:00,
2013-08-21 03:37:00,48.7,42.5,30.04,West,281,0.0,0.0,79,0.00,,CLR,0.00,VWS V14.01,2013-08-21 10:37:00,
2013-08-21 03:42:00,48.6,42.4,30.04,West,281,0.0,0.0,79,0.00,,CLR,0.00,VWS V14.01,2013-08-21 10:42:00,
2013-08-21 03:47:00,48.4,42.2,30.05,West,281,0.0,0.0,79,0.00,,CLR,0.00,VWS V14.01,2013-08-21 10:47:00,
2013-08-21 03:52:00,48.3,42.1,30.05,West,281,0.0,0.0,79,0.00,,CLR,0.00,VWS V14.01,2013-08-21 10:52:00,
2013-08-21 03:57:00,48.1,42.5,30.05,West,281,0.0,0.0,81,0.00,,CLR,0.00,VWS V14.01,2013-08-21 10:57:00,
2013-08-21 04:02:00,48.0,42.5,30.05,West,281,0.0,0.0,81,0.00,,CLR,0.00,VWS V14.01,2013-08-21 11:02:00,
2013-08-21 04:07:00,48.0,42.5,30.05,West,281,0.0,0.0,81,0.00,,CLR,0.00,VWS V14.01,2013-08-21 11:07:00,
2013-08-21 04:12:00,48.1,42.5,30.05,West,281,0.0,0.0,81,0.00,,CLR,0.00,VWS V14.01,2013-08-21 11:12:00,
2013-08-21 04:17:00,48.3,42.8,30.05,West,281,0.0,0.0,81,0.00,,CLR,0.00,VWS V14.01,2013-08-21 11:17:00,
2013-08-21 04:22:00,48.4,42.5,30.05,West,281,0.0,0.0,80,0.00,,CLR,0.00,VWS V14.01,2013-08-21 11:22:00,
2013-08-21 04:27:00,48.4,42.5,30.05,West,281,0.0,0.0,80,0.00,,CLR,0.00,VWS V14.01,2013-08-21 11:27:00,
2013-08-21 04:33:00,48.3,43.1,30.05,West,281,0.0,0.0,82,0.00,,CLR,0.00,VWS V14.01,2013-08-21 11:33:00,
2013-08-21 04:38:00,48.1,42.9,30.05,West,281,0.0,0.0,82,0.00,,CLR,0.00,VWS V14.01,2013-08-21 11:38:00,
2013-08-21 04:43:00,48.0,42.8,30.05,West,281,0.0,0.0,82,0.00,,CLR,0.00,VWS V14.01,2013-08-21 11:43:00,
2013-08-21 04:48:00,47.7,42.5,30.05,West,281,0.0,0.0,82,0.00,,CLR,0.00,VWS V14.01,2013-08-21 11:48:00,
2013-08-21 04:53:00,47.4,42.2,30.05,West,281,0.0,0.0,82,0.00,,CLR,0.00,VWS V14.01,2013-08-21 11:53:00,
2013-08-21 04:58:00,47.1,41.9,30.05,West,281,0.0,0.0,82,0.00,,CLR,0.00,VWS V14.01,2013-08-21 11:58:00,
2013-08-21 05:03:00,47.0,42.4,30.05,West,281,0.0,0.0,84,0.00,,CLR,0.00,VWS V14.01,2013-08-21 12:03:00,
2013-08-21 05:08:00,46.8,42.2,30.05,West,281,0.0,0.0,84,0.00,,CLR,0.00,VWS V14.01,2013-08-21 12:08:00,
2013-08-21 05:13:00,46.7,42.4,30.05,West,281,0.0,0.0,85,0.00,,CLR,0.00,VWS V14.01,2013-08-21 12:13:00,
2013-08-21 05:18:00,46.7,42.4,30.05,West,281,0.0,0.0,85,0.00,,CLR,0.00,VWS V14.01,2013-08-21 12:18:00,
2013-08-21 05:23:00,46.7,42.7,30.05,West,281,0.0,0.0,86,0.00,,CLR,0.00,VWS V14.01,2013-08-21 12:23:00,
2013-08-21 05:28:00,46.7,42.7,30.05,West,281,0.0,0.0,86,0.00,,CLR,0.00,VWS V14.01,2013-08-21 12:28:00,
2013-08-21 05:33:00,46.5,42.5,30.05,West,281,0.0,0.0,86,0.00,,CLR,0.00,VWS V14.01,2013-08-21 12:33:00,
2013-08-21 05:38:00,46.5,42.5,30.05,West,281,0.0,0.0,86,0.00,,CLR,0.00,VWS V14.01,2013-08-21 12:38:00,
2013-08-21 05:43:00,46.7,42.7,30.05,West,281,0.0,0.0,86,0.00,,CLR,0.00,VWS V14.01,2013-08-21 12:43:00,
2013-08-21 05:48:00,46.7,43.0,30.06,West,281,0.0,0.0,87,0.00,,CLR,0.00,VWS V14.01,2013-08-21 12:48:00,
2013-08-21 05:54:00,46.7,43.0,30.06,West,281,0.0,0.0,87,0.00,,CLR,0.00,VWS V14.01,2013-08-21 12:54:00,
2013-08-21 05:59:00,46.7,43.0,30.06,West,281,0.0,0.0,87,0.00,,CLR,0.00,VWS V14.01,2013-08-21 12:59:00,
2013-08-21 06:04:00,46.8,43.1,30.06,West,281,0.0,0.0,87,0.00,,CLR,0.00,VWS V14.01,2013-08-21 13:04:00,
2013-08-21 06:09:00,47.1,43.4,30.06,West,281,0.0,0.0,87,0.00,,CLR,0.00,VWS V14.01,2013-08-21 13:09:00,
2013-08-21 06:14:00,47.2,43.5,30.06,West,281,0.0,0.0,87,0.00,,CLR,0.00,VWS V14.01,2013-08-21 13:14:00,
2013-08-21 06:19:00,47.4,43.7,30.06,West,281,0.0,0.0,87,0.00,,CLR,0.00,VWS V14.01,2013-08-21 13:19:00,
2013-08-21 06:24:00,47.5,43.8,30.06,West,281,0.0,0.0,87,0.00,,CLR,0.00,VWS V14.01,2013-08-21 13:24:00,
2013-08-21 06:29:00,47.5,43.5,30.06,West,281,0.0,0.0,86,0.00,,CLR,0.00,VWS V14.01,2013-08-21 13:29:00,
2013-08-21 06:34:00,49.0,45.0,30.06,West,281,0.0,0.0,86,0.00,,CLR,0.00,VWS V14.01,2013-08-21 13:34:00,
2013-08-21 06:39:00,49.0,45.0,30.06,West,281,0.0,0.0,86,0.00,,CLR,0.00,VWS V14.01,2013-08-21 13:39:00,
2013-08-21 06:44:00,51.1,45.2,30.06,West,281,0.0,0.0,80,0.00,,CLR,0.00,VWS V14.01,2013-08-21 13:44:00,
2013-08-21 06:49:00,52.0,46.0,30.07,West,281,0.0,0.0,80,0.00,,CLR,0.00,VWS V14.01,2013-08-21 13:49:00,
2013-08-21 06:54:00,52.9,46.9,30.07,West,281,0.0,0.0,80,0.00,,CLR,0.00,VWS V14.01,2013-08-21 13:54:00,
2013-08-21 06:59:00,53.5,47.5,30.07,West,281,0.0,0.0,80,0.00,,CLR,0.00,VWS V14.01,2013-08-21 13:59:00,
2013-08-21 07:04:00,54.2,48.2,30.07,West,281,0.0,0.0,80,0.00,,CLR,0.00,VWS V14.01,2013-08-21 14:04:00,
2013-08-21 07:09:00,54.5,47.1,30.07,West,281,0.0,0.0,76,0.00,,CLR,0.00,VWS V14.01,2013-08-21 14:09:00,
2013-08-21 07:14:00,54.9,47.5,30.07,West,281,0.0,0.0,76,0.00,,CLR,0.00,VWS V14.01,2013-08-21 14:14:00,
2013-08-21 07:19:00,55.4,48.0,30.08,West,281,0.0,0.0,76,0.00,,CLR,0.00,VWS V14.01,2013-08-21 14:19:00,
2013-08-21 07:24:00,55.7,48.3,30.08,West,281,0.0,0.0,76,0.00,,CLR,0.00,VWS V14.01,2013-08-21 14:24:00,
2013-08-21 07:29:00,56.1,48.7,30.08,West,281,0.0,0.0,76,0.00,,CLR,0.00,VWS V14.01,2013-08-21 14:29:00,
2013-08-21 07:35:00,56.7,49.2,30.08,West,281,0.0,0.0,76,0.00,,CLR,0.00,VWS V14.01,2013-08-21 14:35:00,
2013-08-21 07:40:00,57.3,49.8,30.08,West,281,0.0,0.0,76,0.00,,CLR,0.00,VWS V14.01,2013-08-21 14:40:00,
2013-08-21 07:45:00,57.7,50.2,30.08,West,281,0.0,0.0,76,0.00,,CLR,0.00,VWS V14.01,2013-08-21 14:45:00,
2013-08-21 07:50:00,59.1,51.5,30.08,West,281,0.0,0.0,76,0.00,,CLR,0.00,VWS V14.01,2013-08-21 14:50:00,
2013-08-21 07:55:00,60.2,48.4,30.08,West,281,0.0,0.0,65,0.00,,CLR,0.00,VWS V14.01,2013-08-21 14:55:00,
2013-08-21 08:00:00,60.9,47.8,30.08,West,281,0.0,0.0,62,0.00,,CLR,0.00,VWS V14.01,2013-08-21 15:00:00,
2013-08-21 08:05:00,62.0,49.3,30.08,West,281,0.0,0.0,63,0.00,,CLR,0.00,VWS V14.01,2013-08-21 15:05:00,
2013-08-21 08:10:00,62.8,49.2,30.08,West,281,0.0,0.0,61,0.00,,CLR,0.00,VWS V14.01,2013-08-21 15:10:00,
2013-08-21 08:15:00,63.6,49.5,30.08,West,281,0.0,0.0,60,0.00,,CLR,0.00,VWS V14.01,2013-08-21 15:15:00,
2013-08-21 08:20:00,64.4,50.2,30.08,West,281,0.0,0.0,60,0.00,,CLR,0.00,VWS V14.01,2013-08-21 15:20:00,
2013-08-21 08:25:00,65.3,51.1,30.08,West,281,0.0,0.0,60,0.00,,CLR,0.00,VWS V14.01,2013-08-21 15:25:00,
2013-08-21 08:30:00,66.6,51.4,30.08,West,281,0.0,0.0,58,0.00,,CLR,0.00,VWS V14.01,2013-08-21 15:30:00,
2013-08-21 08:35:00,67.3,52.0,30.08,West,281,0.0,0.0,58,0.00,,CLR,0.00,VWS V14.01,2013-08-21 15:35:00,
2013-08-21 08:40:00,68.1,49.3,30.08,West,281,0.0,1.0,51,0.00,,CLR,0.00,VWS V14.01,2013-08-21 15:40:00,
2013-08-21 08:45:00,68.4,49.6,30.08,West,281,0.0,0.0,51,0.00,,CLR,0.00,VWS V14.01,2013-08-21 15:45:00,
2013-08-21 08:50:00,69.1,49.7,30.08,ENE,75,0.0,2.0,50,0.00,,CLR,0.00,VWS V14.01,2013-08-21 15:50:00,
2013-08-21 08:56:00,69.4,50.0,30.08,NE,54,0.0,0.0,50,0.00,,CLR,0.00,VWS V14.01,2013-08-21 15:56:00,
2013-08-21 09:01:00,69.8,50.3,30.08,ENE,76,2.0,3.0,50,0.00,,CLR,0.00,VWS V14.01,2013-08-21 16:01:00,
2013-08-21 09:06:00,69.9,50.4,30.08,East,79,2.0,3.0,50,0.00,,CLR,0.00,VWS V14.01,2013-08-21 16:06:00,
2013-08-21 09:11:00,70.1,50.6,30.08,ENE,65,0.0,0.0,50,0.00,,CLR,0.00,VWS V14.01,2013-08-21 16:11:00,
2013-08-21 09:16:00,70.4,50.9,30.08,East,80,0.0,1.0,50,0.00,,CLR,0.00,VWS V14.01,2013-08-21 16:16:00,
2013-08-21 09:21:00,70.9,51.3,30.08,East,96,0.0,2.0,50,0.00,,CLR,0.00,VWS V14.01,2013-08-21 16:21:00,
2013-08-21 09:26:00,71.3,46.4,30.08,ENE,75,0.0,0.0,41,0.00,,CLR,0.00,VWS V14.01,2013-08-21 16:26:00,
2013-08-21 09:31:00,71.9,47.0,30.08,ENE,75,0.0,0.0,41,0.00,,CLR,0.00,VWS V14.01,2013-08-21 16:31:00,
2013-08-21 09:36:00,72.6,47.6,30.08,ENE,75,1.0,2.0,41,0.00,,CLR,0.00,VWS V14.01,2013-08-21 16:36:00,
2013-08-21 09:41:00,72.6,47.6,30.08,East,86,0.0,3.0,41,0.00,,CLR,0.00,VWS V14.01,2013-08-21 16:41:00,
2013-08-21 09:46:00,72.5,47.5,30.08,ENE,65,0.0,0.0,41,0.00,,CLR,0.00,VWS V14.01,2013-08-21 16:46:00,
2013-08-21 09:51:00,72.8,47.8,30.08,East,80,0.0,0.0,41,0.00,,CLR,0.00,VWS V14.01,2013-08-21 16:51:00,
2013-08-21 09:56:00,73.3,48.2,30.08,ENE,68,2.0,2.0,41,0.00,,CLR,0.00,VWS V14.01,2013-08-21 16:56:00,
2013-08-21 10:01:00,73.7,45.1,30.08,ENE,59,0.0,0.0,36,0.00,,CLR,0.00,VWS V14.01,2013-08-21 17:01:00,
2013-08-21 10:06:00,74.0,47.5,30.08,ENE,78,0.0,3.0,39,0.00,,CLR,0.00,VWS V14.01,2013-08-21 17:06:00,
2013-08-21 10:11:00,74.5,47.9,30.08,ENE,78,0.0,0.0,39,0.00,,CLR,0.00,VWS V14.01,2013-08-21 17:11:00,
2013-08-21 10:17:00,74.9,46.9,30.08,East,89,0.0,0.0,37,0.00,,CLR,0.00,VWS V14.01,2013-08-21 17:17:00,
2013-08-21 10:22:00,75.0,47.0,30.08,East,89,2.0,2.0,37,0.00,,CLR,0.00,VWS V14.01,2013-08-21 17:22:00,
2013-08-21 10:27:00,75.2,49.9,30.08,East,89,1.0,1.0,41,0.00,,CLR,0.00,VWS V14.01,2013-08-21 17:27:00,
2013-08-21 10:32:00,75.6,47.5,30.08,ENE,62,0.0,1.0,37,0.00,,CLR,0.00,VWS V14.01,2013-08-21 17:32:00,
2013-08-21 10:37:00,75.9,49.9,30.08,East,80,5.0,6.0,40,0.00,,CLR,0.00,VWS V14.01,2013-08-21 17:37:00,
2013-08-21 10:42:00,75.9,50.5,30.08,East,82,1.0,1.0,41,0.00,,CLR,0.00,VWS V14.01,2013-08-21 17:42:00,
2013-08-21 10:47:00,76.3,50.9,30.07,ENE,75,0.0,0.0,41,0.00,,CLR,0.00,VWS V14.01,2013-08-21 17:47:00,
2013-08-21 10:52:00,76.4,50.3,30.07,ENE,72,1.0,2.0,40,0.00,,CLR,0.00,VWS V14.01,2013-08-21 17:52:00,
2013-08-21 10:57:00,76.4,45.2,30.07,ENE,72,1.0,1.0,33,0.00,,CLR,0.00,VWS V14.01,2013-08-21 17:57:00,
2013-08-21 11:02:00,76.8,45.5,30.07,ENE,71,0.0,0.0,33,0.00,,CLR,0.00,VWS V14.01,2013-08-21 18:02:00,
2013-08-21 11:07:00,77.1,45.8,30.07,ENE,71,1.0,2.0,33,0.00,,CLR,0.00,VWS V14.01,2013-08-21 18:07:00,
2013-08-21 11:12:00,77.5,46.2,30.07,ENE,64,0.0,0.0,33,0.00,,CLR,0.00,VWS V14.01,2013-08-21 18:12:00,
2013-08-21 11:17:00,78.0,51.8,30.07,ENE,64,0.0,1.0,40,0.00,,CLR,0.00,VWS V14.01,2013-08-21 18:17:00,
2013-08-21 11:22:00,78.2,51.9,30.07,ENE,75,1.0,3.0,40,0.00,,CLR,0.00,VWS V14.01,2013-08-21 18:22:00,
2013-08-21 11:27:00,78.4,50.0,30.07,ENE,75,0.0,0.0,37,0.00,,CLR,0.00,VWS V14.01,2013-08-21 18:27:00,
2013-08-21 11:32:00,78.7,50.3,30.06,ENE,75,0.0,0.0,37,0.00,,CLR,0.00,VWS V14.01,2013-08-21 18:32:00,
2013-08-21 11:38:00,78.9,50.4,30.06,ENE,76,0.0,2.0,37,0.00,,CLR,0.00,VWS V14.01,2013-08-21 18:38:00,
2013-08-21 11:43:00,79.1,49.1,30.06,ENE,76,0.0,0.0,35,0.00,,CLR,0.00,VWS V14.01,2013-08-21 18:43:00,
2013-08-21 11:48:00,79.6,49.6,30.06,ENE,78,0.0,0.0,35,0.00,,CLR,0.00,VWS V14.01,2013-08-21 18:48:00,
2013-08-21 11:53:00,79.8,48.2,30.06,ENE,78,0.0,0.0,33,0.00,,CLR,0.00,VWS V14.01,2013-08-21 18:53:00,
2013-08-21 11:58:00,80.0,46.7,30.06,East,82,0.0,0.0,31,0.00,,CLR,0.00,VWS V14.01,2013-08-21 18:58:00,
2013-08-21 12:03:00,80.4,46.2,30.06,East,80,0.0,0.0,30,0.00,,CLR,0.00,VWS V14.01,2013-08-21 19:03:00,
2013-08-21 12:08:00,80.8,45.6,30.06,East,80,0.0,0.0,29,0.00,,CLR,0.00,VWS V14.01,2013-08-21 19:08:00,
2013-08-21 12:13:00,80.8,42.8,30.06,East,82,0.0,0.0,26,0.00,,CLR,0.00,VWS V14.01,2013-08-21 19:13:00,
2013-08-21 12:18:00,80.9,42.8,30.05,East,80,0.0,0.0,26,0.00,,CLR,0.00,VWS V14.01,2013-08-21 19:18:00,
2013-08-21 12:23:00,81.1,43.0,30.05,East,80,0.0,0.0,26,0.00,,CLR,0.00,VWS V14.01,2013-08-21 19:23:00,
2013-08-21 12:28:00,81.3,49.5,30.05,East,80,0.0,0.0,33,0.00,,CLR,0.00,VWS V14.01,2013-08-21 19:28:00,
2013-08-21 12:33:00,81.5,49.7,30.05,East,80,0.0,0.0,33,0.00,,CLR,0.00,VWS V14.01,2013-08-21 19:33:00,
2013-08-21 12:38:00,81.5,46.2,30.05,East,80,0.0,0.0,29,0.00,,CLR,0.00,VWS V14.01,2013-08-21 19:38:00,
2013-08-21 12:43:00,81.9,41.6,30.05,East,80,0.0,0.0,24,0.00,,CLR,0.00,VWS V14.01,2013-08-21 19:43:00,
2013-08-21 12:48:00,82.2,43.9,30.05,East,80,0.0,0.0,26,0.00,,CLR,0.00,VWS V14.01,2013-08-21 19:48:00,
2013-08-21 12:53:00,82.8,44.5,30.05,East,80,0.0,0.0,26,0.00,,CLR,0.00,VWS V14.01,2013-08-21 19:53:00,
2013-08-21 12:59:00,83.0,44.6,30.05,East,80,0.0,0.0,26,0.00,,CLR,0.00,VWS V14.01,2013-08-21 19:59:00,
2013-08-21 13:04:00,83.4,46.0,30.04,East,80,0.0,0.0,27,0.00,,CLR,0.00,VWS V14.01,2013-08-21 20:04:00,
2013-08-21 13:09:00,83.4,46.0,30.04,East,80,0.0,0.0,27,0.00,,CLR,0.00,VWS V14.01,2013-08-21 20:09:00,
2013-08-21 13:14:00,83.6,44.1,30.04,East,80,0.0,0.0,25,0.00,,CLR,0.00,VWS V14.01,2013-08-21 20:14:00,
2013-08-21 13:19:00,83.6,44.1,30.04,East,80,3.0,3.0,25,0.00,,CLR,0.00,VWS V14.01,2013-08-21 20:19:00,
2013-08-21 13:24:00,83.4,43.9,30.04,East,80,0.0,0.0,25,0.00,,CLR,0.00,VWS V14.01,2013-08-21 20:24:00,
2013-08-21 13:29:00,83.4,43.9,30.04,East,80,0.0,0.0,25,0.00,,CLR,0.00,VWS V14.01,2013-08-21 20:29:00,
2013-08-21 13:34:00,83.6,44.1,30.03,East,80,0.0,0.0,25,0.00,,CLR,0.00,VWS V14.01,2013-08-21 20:34:00,
2013-08-21 13:39:00,83.8,44.3,30.03,East,80,1.0,1.0,25,0.00,,CLR,0.00,VWS V14.01,2013-08-21 20:39:00,
2013-08-21 13:44:00,84.2,46.6,30.03,East,80,0.0,0.0,27,0.00,,CLR,0.00,VWS V14.01,2013-08-21 20:44:00,
2013-08-21 13:49:00,84.2,47.6,30.03,East,82,0.0,0.0,28,0.00,,CLR,0.00,VWS V14.01,2013-08-21 20:49:00,
2013-08-21 13:54:00,84.4,47.8,30.03,East,82,0.0,0.0,28,0.00,,CLR,0.00,VWS V14.01,2013-08-21 20:54:00,
2013-08-21 13:59:00,84.4,47.8,30.03,East,82,0.0,0.0,28,0.00,,CLR,0.00,VWS V14.01,2013-08-21 20:59:00,
2013-08-21 14:04:00,84.4,43.7,30.03,East,82,0.0,0.0,24,0.00,,CLR,0.00,VWS V14.01,2013-08-21 21:04:00,
2013-08-21 14:09:00,84.4,42.6,30.03,East,82,0.0,0.0,23,0.00,,CLR,0.00,VWS V14.01,2013-08-21 21:09:00,
2013-08-21 14:14:00,84.6,41.6,30.03,East,82,0.0,0.0,22,0.00,,CLR,0.00,VWS V14.01,2013-08-21 21:14:00,
2013-08-21 14:19:00,84.8,46.1,30.02,East,82,1.0,1.0,26,0.00,,CLR,0.00,VWS V14.01,2013-08-21 21:19:00,
2013-08-21 14:24:00,84.6,46.0,30.02,East,82,0.0,0.0,26,0.00,,CLR,0.00,VWS V14.01,2013-08-21 21:24:00,
2013-08-21 14:29:00,84.6,41.6,30.02,East,82,3.0,3.0,22,0.00,,CLR,0.00,VWS V14.01,2013-08-21 21:29:00,
2013-08-21 14:34:00,84.6,41.6,30.02,East,82,0.0,0.0,22,0.00,,CLR,0.00,VWS V14.01,2013-08-21 21:34:00,
2013-08-21 14:39:00,85.0,41.9,30.02,East,82,0.0,0.0,22,0.00,,CLR,0.00,VWS V14.01,2013-08-21 21:39:00,
2013-08-21 14:45:00,85.3,42.2,30.02,East,82,0.0,0.0,22,0.00,,CLR,0.00,VWS V14.01,2013-08-21 21:45:00,
2013-08-21 14:50:00,85.7,42.5,30.01,East,82,0.0,0.0,22,0.00,,CLR,0.00,VWS V14.01,2013-08-21 21:50:00,
2013-08-21 14:55:00,85.5,46.7,30.01,East,82,0.0,0.0,26,0.00,,CLR,0.00,VWS V14.01,2013-08-21 21:55:00,
2013-08-21 15:00:00,85.3,43.3,30.01,East,82,0.0,0.0,23,0.00,,CLR,0.00,VWS V14.01,2013-08-21 22:00:00,
2013-08-21 15:05:00,85.5,45.7,30.01,East,82,0.0,2.0,25,0.00,,CLR,0.00,VWS V14.01,2013-08-21 22:05:00,
2013-08-21 15:10:00,85.5,45.7,30.01,East,82,0.0,0.0,25,0.00,,CLR,0.00,VWS V14.01,2013-08-21 22:10:00,
2013-08-21 15:15:00,85.9,41.5,30.01,East,82,0.0,0.0,21,0.00,,CLR,0.00,VWS V14.01,2013-08-21 22:15:00,
2013-08-21 15:20:00,86.5,43.2,30.00,East,82,0.0,0.0,22,0.00,,CLR,0.00,VWS V14.01,2013-08-21 22:20:00,
2013-08-21 15:25:00,86.9,41.0,30.00,East,82,0.0,0.0,20,0.00,,CLR,0.00,VWS V14.01,2013-08-21 22:25:00,
2013-08-21 15:30:00,86.9,43.5,30.00,East,82,0.0,0.0,22,0.00,,CLR,0.00,VWS V14.01,2013-08-21 22:30:00,
2013-08-21 15:35:00,86.7,43.3,30.00,East,82,0.0,0.0,22,0.00,,CLR,0.00,VWS V14.01,2013-08-21 22:35:00,
2013-08-21 15:40:00,86.7,43.3,30.00,East,82,0.0,0.0,22,0.00,,CLR,0.00,VWS V14.01,2013-08-21 22:40:00,
2013-08-21 15:45:00,86.3,43.0,30.00,East,82,0.0,0.0,22,0.00,,CLR,0.00,VWS V14.01,2013-08-21 22:45:00,
2013-08-21 15:50:00,86.1,51.1,30.00,East,82,0.0,0.0,30,0.00,,CLR,0.00,VWS V14.01,2013-08-21 22:50:00,
2013-08-21 15:55:00,86.1,51.1,30.00,East,82,0.0,0.0,30,0.00,,CLR,0.00,VWS V14.01,2013-08-21 22:55:00,
2013-08-21 16:00:00,85.9,50.9,30.00,East,82,1.0,1.0,30,0.00,,CLR,0.00,VWS V14.01,2013-08-21 23:00:00,
2013-08-21 16:05:00,85.5,50.6,29.99,East,82,0.0,0.0,30,0.00,,CLR,0.00,VWS V14.01,2013-08-21 23:05:00,
2013-08-21 16:10:00,85.7,50.7,29.99,East,82,0.0,0.0,30,0.00,,CLR,0.00,VWS V14.01,2013-08-21 23:10:00,
2013-08-21 16:16:00,85.7,50.7,29.99,East,82,0.0,0.0,30,0.00,,CLR,0.00,VWS V14.01,2013-08-21 23:16:00,
2013-08-21 16:21:00,85.3,50.4,29.99,East,82,0.0,0.0,30,0.00,,CLR,0.00,VWS V14.01,2013-08-21 23:21:00,
2013-08-21 16:26:00,85.3,50.4,29.99,East,82,0.0,0.0,30,0.00,,CLR,0.00,VWS V14.01,2013-08-21 23:26:00,
2013-08-21 16:31:00,85.0,50.1,29.99,East,82,0.0,0.0,30,0.00,,CLR,0.00,VWS V14.01,2013-08-21 23:31:00,
2013-08-21 16:36:00,85.0,48.3,29.98,East,82,0.0,0.0,28,0.00,,CLR,0.00,VWS V14.01,2013-08-21 23:36:00,
2013-08-21 16:41:00,84.8,49.0,29.98,East,82,0.0,0.0,29,0.00,,CLR,0.00,VWS V14.01,2013-08-21 23:41:00,
2013-08-21 16:46:00,84.8,49.0,29.98,East,82,0.0,0.0,29,0.00,,CLR,0.00,VWS V14.01,2013-08-21 23:46:00,
2013-08-21 16:51:00,85.0,49.2,29.98,East,82,0.0,1.0,29,0.00,,CLR,0.00,VWS V14.01,2013-08-21 23:51:00,
2013-08-21 16:56:00,85.0,43.1,29.98,East,82,0.0,0.0,23,0.00,,CLR,0.00,VWS V14.01,2013-08-21 23:56:00,
2013-08-21 17:01:00,84.8,42.9,29.98,East,82,0.0,0.0,23,0.00,,CLR,0.00,VWS V14.01,2013-08-22 00:01:00,
2013-08-21 17:06:00,85.0,47.3,29.98,East,82,0.0,0.0,27,0.00,,CLR,0.00,VWS V14.01,2013-08-22 00:06:00,
2013-08-21 17:11:00,85.0,47.3,29.98,East,82,0.0,0.0,27,0.00,,CLR,0.00,VWS V14.01,2013-08-22 00:11:00,
2013-08-21 17:16:00,85.1,47.4,29.98,East,82,0.0,0.0,27,0.00,,CLR,0.00,VWS V14.01,2013-08-22 00:16:00,
2013-08-21 17:21:00,85.9,48.1,29.97,East,82,0.0,0.0,27,0.00,,CLR,0.00,VWS V14.01,2013-08-22 00:21:00,
2013-08-21 17:26:00,86.7,48.8,29.97,East,82,0.0,0.0,27,0.00,,CLR,0.00,VWS V14.01,2013-08-22 00:26:00,
2013-08-21 17:31:00,87.3,49.3,29.97,East,82,0.0,0.0,27,0.00,,CLR,0.00,VWS V14.01,2013-08-22 00:31:00,
2013-08-21 17:36:00,87.5,46.3,29.97,East,82,0.0,0.0,24,0.00,,CLR,0.00,VWS V14.01,2013-08-22 00:36:00,
2013-08-21 17:41:00,87.7,48.6,29.97,East,82,0.0,0.0,26,0.00,,CLR,0.00,VWS V14.01,2013-08-22 00:41:00,
2013-08-21 17:47:00,87.5,46.3,29.97,East,82,0.0,0.0,24,0.00,,CLR,0.00,VWS V14.01,2013-08-22 00:47:00,
2013-08-21 17:52:00,86.9,46.9,29.97,East,82,0.0,0.0,25,0.00,,CLR,0.00,VWS V14.01,2013-08-22 00:52:00,
2013-08-21 17:57:00,86.3,47.4,29.97,East,82,0.0,0.0,26,0.00,,CLR,0.00,VWS V14.01,2013-08-22 00:57:00,
2013-08-21 18:02:00,85.7,46.9,29.97,East,82,0.0,0.0,26,0.00,,CLR,0.00,VWS V14.01,2013-08-22 01:02:00,
2013-08-21 18:07:00,85.5,47.7,29.97,East,82,0.0,0.0,27,0.00,,CLR,0.00,VWS V14.01,2013-08-22 01:07:00,
2013-08-21 18:12:00,84.8,48.1,29.97,East,82,0.0,0.0,28,0.00,,CLR,0.00,VWS V14.01,2013-08-22 01:12:00,
2013-08-21 18:17:00,84.0,47.4,29.97,East,82,0.0,0.0,28,0.00,,CLR,0.00,VWS V14.01,2013-08-22 01:17:00,
2013-08-21 18:22:00,83.2,47.7,29.97,East,82,0.0,0.0,29,0.00,,CLR,0.00,VWS V14.01,2013-08-22 01:22:00,
2013-08-21 18:27:00,82.4,48.8,29.97,East,82,0.0,0.0,31,0.00,,CLR,0.00,VWS V14.01,2013-08-22 01:27:00,
2013-08-21 18:32:00,81.5,48.0,29.97,East,82,0.0,0.0,31,0.00,,CLR,0.00,VWS V14.01,2013-08-22 01:32:00,
2013-08-21 18:37:00,80.6,48.0,29.97,East,82,0.0,0.0,32,0.00,,CLR,0.00,VWS V14.01,2013-08-22 01:37:00,
2013-08-21 18:42:00,80.0,47.5,29.97,East,82,0.0,0.0,32,0.00,,CLR,0.00,VWS V14.01,2013-08-22 01:42:00,
2013-08-21 18:47:00,79.3,47.7,29.97,East,82,0.0,0.0,33,0.00,,CLR,0.00,VWS V14.01,2013-08-22 01:47:00,
2013-08-21 18:52:00,78.7,48.0,29.97,East,82,0.0,0.0,34,0.00,,CLR,0.00,VWS V14.01,2013-08-22 01:52:00,
2013-08-21 18:57:00,78.0,47.4,29.97,East,82,0.0,0.0,34,0.00,,CLR,0.00,VWS V14.01,2013-08-22 01:57:00,
2013-08-21 19:02:00,77.7,46.3,29.97,East,82,0.0,0.0,33,0.00,,CLR,0.00,VWS V14.01,2013-08-22 02:02:00,
2013-08-21 19:07:00,77.3,46.0,29.97,East,82,0.0,0.0,33,0.00,,CLR,0.00,VWS V14.01,2013-08-22 02:07:00,
2013-08-21 19:12:00,77.0,45.7,29.97,East,82,0.0,0.0,33,0.00,,CLR,0.00,VWS V14.01,2013-08-22 02:12:00,
2013-08-21 19:17:00,76.4,48.9,29.97,East,82,0.0,0.0,38,0.00,,CLR,0.00,VWS V14.01,2013-08-22 02:17:00,
2013-08-21 19:22:00,76.1,48.0,29.97,East,82,0.0,0.0,37,0.00,,CLR,0.00,VWS V14.01,2013-08-22 02:22:00,
2013-08-21 19:27:00,75.6,47.5,29.97,East,82,0.0,0.0,37,0.00,,CLR,0.00,VWS V14.01,2013-08-22 02:27:00,
2013-08-21 19:32:00,75.2,49.9,29.97,East,82,0.0,0.0,41,0.00,,CLR,0.00,VWS V14.01,2013-08-22 02:32:00,
2013-08-21 19:38:00,74.5,51.2,29.97,East,82,0.0,0.0,44,0.00,,CLR,0.00,VWS V14.01,2013-08-22 02:38:00,
2013-08-21 19:43:00,73.8,52.3,29.97,East,82,0.0,0.0,47,0.00,,CLR,0.00,VWS V14.01,2013-08-22 02:43:00,
2013-08-21 19:48:00,73.1,51.7,29.97,East,82,0.0,0.0,47,0.00,,CLR,0.00,VWS V14.01,2013-08-22 02:48:00,
2013-08-21 19:53:00,72.5,50.6,29.97,East,82,0.0,0.0,46,0.00,,CLR,0.00,VWS V14.01,2013-08-22 02:53:00,
2013-08-21 19:58:00,72.1,50.2,29.97,East,82,0.0,0.0,46,0.00,,CLR,0.00,VWS V14.01,2013-08-22 02:58:00,
2013-08-21 20:03:00,71.4,49.6,29.96,East,82,0.0,0.0,46,0.00,,CLR,0.00,VWS V14.01,2013-08-22 03:03:00,
2013-08-21 20:08:00,71.1,51.5,29.96,East,82,0.0,0.0,50,0.00,,CLR,0.00,VWS V14.01,2013-08-22 03:08:00,
2013-08-21 20:13:00,70.6,51.6,29.96,East,82,0.0,0.0,51,0.00,,CLR,0.00,VWS V14.01,2013-08-22 03:13:00,
2013-08-21 20:18:00,69.9,51.0,29.97,East,82,0.0,0.0,51,0.00,,CLR,0.00,VWS V14.01,2013-08-22 03:18:00,
2013-08-21 20:23:00,69.4,50.5,29.97,East,82,0.0,0.0,51,0.00,,CLR,0.00,VWS V14.01,2013-08-22 03:23:00,
2013-08-21 20:28:00,68.9,50.6,29.97,East,82,0.0,0.0,52,0.00,,CLR,0.00,VWS V14.01,2013-08-22 03:28:00,
2013-08-21 20:33:00,68.4,50.1,29.97,East,82,0.0,0.0,52,0.00,,CLR,0.00,VWS V14.01,2013-08-22 03:33:00,
2013-08-21 20:38:00,68.1,49.8,29.97,East,82,0.0,0.0,52,0.00,,CLR,0.00,VWS V14.01,2013-08-22 03:38:00,
2013-08-21 20:43:00,67.6,49.4,29.97,East,82,0.0,0.0,52,0.00,,CLR,0.00,VWS V14.01,2013-08-22 03:43:00,
2013-08-21 20:48:00,67.0,48.8,29.98,East,82,0.0,0.0,52,0.00,,CLR,0.00,VWS V14.01,2013-08-22 03:48:00,
2013-08-21 20:53:00,66.6,52.8,29.98,East,82,0.0,0.0,61,0.00,,CLR,0.00,VWS V14.01,2013-08-22 03:53:00,
2013-08-21 20:58:00,66.0,52.6,29.98,East,82,0.0,0.0,62,0.00,,CLR,0.00,VWS V14.01,2013-08-22 03:58:00,
2013-08-21 21:01:00,65.7,52.3,29.98,East,82,0.0,0.0,62,0.00,,CLR,0.00,VWS V14.01,2013-08-22 04:01:00,
2013-08-21 21:02:00,65.5,52.2,29.98,East,82,0.0,0.0,62,0.00,,CLR,0.00,VWS V14.01,2013-08-22 04:02:00,
2013-08-21 21:03:00,65.5,52.2,29.98,East,82,0.0,0.0,62,0.00,,CLR,0.00,VWS V14.01,2013-08-22 04:03:00,
2013-08-21 21:08:00,64.9,52.5,29.98,East,82,0.0,0.0,64,0.00,,CLR,0.00,VWS V14.01,2013-08-22 04:08:00,
2013-08-21 21:13:00,64.7,52.3,29.98,East,82,0.0,0.0,64,0.00,,CLR,0.00,VWS V14.01,2013-08-22 04:13:00,
2013-08-21 21:18:00,64.1,51.7,29.98,East,82,0.0,0.0,64,0.00,,CLR,0.00,VWS V14.01,2013-08-22 04:18:00,
2013-08-21 21:23:00,63.7,52.1,29.98,East,82,0.0,0.0,66,0.00,,CLR,0.00,VWS V14.01,2013-08-22 04:23:00,
2013-08-21 21:28:00,63.4,52.3,29.98,East,82,0.0,0.0,67,0.00,,CLR,0.00,VWS V14.01,2013-08-22 04:28:00,
2013-08-21 21:33:00,63.0,51.9,29.98,East,82,0.0,0.0,67,0.00,,CLR,0.00,VWS V14.01,2013-08-22 04:33:00,
2013-08-21 21:38:00,62.5,52.2,29.98,East,82,0.0,0.0,69,0.00,,CLR,0.00,VWS V14.01,2013-08-22 04:38:00,
2013-08-21 21:43:00,62.0,51.7,29.98,East,82,0.0,0.0,69,0.00,,CLR,0.00,VWS V14.01,2013-08-22 04:43:00,
2013-08-21 21:48:00,61.7,51.4,29.99,East,82,0.0,0.0,69,0.00,,CLR,0.00,VWS V14.01,2013-08-22 04:48:00,
2013-08-21 21:53:00,61.2,52.1,29.99,East,82,0.0,0.0,72,0.00,,CLR,0.00,VWS V14.01,2013-08-22 04:53:00,
2013-08-21 21:58:00,60.9,51.8,29.99,East,82,0.0,0.0,72,0.00,,CLR,0.00,VWS V14.01,2013-08-22 04:58:00,
2013-08-21 22:03:00,60.6,51.5,29.98,East,82,0.0,0.0,72,0.00,,CLR,0.00,VWS V14.01,2013-08-22 05:03:00,
2013-08-21 22:08:00,60.0,51.7,29.98,East,82,0.0,0.0,74,0.00,,CLR,0.00,VWS V14.01,2013-08-22 05:08:00,
2013-08-21 22:13:00,60.0,51.7,29.98,East,82,0.0,0.0,74,0.00,,CLR,0.00,VWS V14.01,2013-08-22 05:13:00,
2013-08-21 22:18:00,59.3,51.4,29.99,East,82,0.0,0.0,75,0.00,,CLR,0.00,VWS V14.01,2013-08-22 05:18:00,
2013-08-21 22:24:00,59.0,51.1,29.99,East,82,0.0,0.0,75,0.00,,CLR,0.00,VWS V14.01,2013-08-22 05:24:00,
2013-08-21 22:29:00,58.6,50.7,29.99,East,82,0.0,0.0,75,0.00,,CLR,0.00,VWS V14.01,2013-08-22 05:29:00,
2013-08-21 22:34:00,58.5,50.6,29.99,East,82,0.0,0.0,75,0.00,,CLR,0.00,VWS V14.01,2013-08-22 05:34:00,
2013-08-21 22:39:00,58.3,50.4,29.99,East,82,0.0,0.0,75,0.00,,CLR,0.00,VWS V14.01,2013-08-22 05:39:00,
2013-08-21 22:44:00,58.2,50.3,29.99,East,82,0.0,0.0,75,0.00,,CLR,0.00,VWS V14.01,2013-08-22 05:44:00,
2013-08-21 22:49:00,58.0,50.1,29.99,East,82,0.0,0.0,75,0.00,,CLR,0.00,VWS V14.01,2013-08-22 05:49:00,
2013-08-21 22:54:00,58.0,50.1,29.99,East,82,0.0,0.0,75,0.00,,CLR,0.00,VWS V14.01,2013-08-22 05:54:00,
2013-08-21 22:59:00,57.9,50.0,29.99,East,82,0.0,0.0,75,0.00,,CLR,0.00,VWS V14.01,2013-08-22 05:59:00,
2013-08-21 23:04:00,57.7,49.8,29.99,East,82,0.0,0.0,75,0.00,,CLR,0.00,VWS V14.01,2013-08-22 06:04:00,
2013-08-21 23:09:00,57.5,49.7,29.99,East,82,0.0,0.0,75,0.00,,CLR,0.00,VWS V14.01,2013-08-22 06:09:00,
2013-08-21 23:14:00,57.2,49.7,29.99,East,82,0.0,0.0,76,0.00,,CLR,0.00,VWS V14.01,2013-08-22 06:14:00,
2013-08-21 23:19:00,56.9,49.4,29.99,East,82,0.0,0.0,76,0.00,,CLR,0.00,VWS V14.01,2013-08-22 06:19:00,
2013-08-21 23:24:00,56.7,49.6,29.99,East,82,0.0,0.0,77,0.00,,CLR,0.00,VWS V14.01,2013-08-22 06:24:00,
2013-08-21 23:30:00,56.7,49.6,29.99,East,82,0.0,0.0,77,0.00,,CLR,0.00,VWS V14.01,2013-08-22 06:30:00,
2013-08-21 23:35:00,56.9,48.7,29.98,East,82,0.0,0.0,74,0.00,,CLR,0.00,VWS V14.01,2013-08-22 06:35:00,
2013-08-21 23:40:00,57.0,48.8,29.98,East,82,0.0,0.0,74,0.00,,CLR,0.00,VWS V14.01,2013-08-22 06:40:00,
2013-08-21 23:45:00,57.0,48.4,29.98,East,82,0.0,0.0,73,0.00,,CLR,0.00,VWS V14.01,2013-08-22 06:45:00,
2013-08-21 23:50:00,56.9,48.7,29.98,East,82,0.0,0.0,74,0.00,,CLR,0.00,VWS V14.01,2013-08-22 06:50:00,
2013-08-21 23:55:00,56.7,48.5,29.98,East,82,0.0,0.0,74,0.00,,CLR,0.00,VWS V14.01,2013-08-22 06:55:00,